Weather History for Storm Lake, IA

Change the Weather History Date:

Monday, December 31, 2012

  Actual Average Record
Temperature  
Mean Temperature 10 °F -  
Max Temperature 19 °F 27 °F 50 °F (2006)
Min Temperature 0 °F 11 °F -13 °F (1998)
Degree Days  
Heating Degree Days 56    
Moisture  
Dew Point 8 °F    
Average Humidity 81    
Maximum Humidity 93    
Minimum Humidity 72    
Precipitation  
Precipitation 0.00 in - - ()
Sea Level Pressure  
Sea Level Pressure 30.14 in    
Wind  
Wind Speed 13 mph (North)    
Max Wind Speed 18 mph    
Max Gust Speed 22 mph    
Visibility 10 miles    
Events      
Averages and records for this station are not official NWS values.
T = Trace of Precipitation, MM = Missing Value Source: NWS Daily Summary

Daily Weather History Graph

Daily Weather History Graph

Search for Another Location

Airport:

Trip Planner

Search our weather history database for the weather conditions in past years. The results will help you decide how hot, cold, wet, or windy it might be!

Date:

Astronomy

Dec. 31, 2012 Rise Set
Actual Time 7:50 AM CST 4:57 PM CST
Civil Twilight 7:18 AM CST 5:29 PM CST
Nautical Twilight 6:43 AM CST 6:05 PM CST
Astronomical Twilight 6:09 AM CST 6:39 PM CST
Moon 8:34 PM CST (12/31) 9:28 AM CST (12/31)
Length of Visible Light 10h 10m
Length of Day
9h 06m
Waning Gibbous, 90% of the Moon is Illuminated
Dec 31
Waning Gibbous
Jan 4
Last Quarter
Jan 11
New
Jan 18
First Quarter
Jan 26
Full

Hourly Weather History & Observations

Time (CST) Temp. Windchill Dew Point Humidity Pressure Visibility Wind Dir Wind Speed Gust Speed Precip Events Conditions
12:15 AM 14.0 °F -2.0 °F 10.4 °F 86% 30.02 in 10.0 mi NW 16.1 mph - N/A   Clear
12:35 AM 14.0 °F -3.0 °F 10.4 °F 86% 30.02 in 10.0 mi NW 18.4 mph - N/A   Clear
12:55 AM 14.0 °F -1.4 °F 10.4 °F 86% 30.03 in 10.0 mi NW 15.0 mph - N/A   Clear
1:15 AM 14.0 °F -1.4 °F 10.4 °F 86% 30.04 in 10.0 mi NNW 15.0 mph - N/A   Clear
1:35 AM 14.0 °F -0.2 °F 10.4 °F 86% 30.04 in 10.0 mi NNW 12.7 mph - N/A   Scattered Clouds
1:55 AM 14.0 °F -0.2 °F 10.4 °F 86% 30.06 in 10.0 mi NNW 12.7 mph - N/A   Overcast
2:15 AM 15.8 °F 2.1 °F 12.2 °F 86% 30.07 in 8.0 mi NNW 12.7 mph - N/A   Overcast
2:35 AM 15.8 °F 4.2 °F 14.0 °F 93% 30.09 in 6.0 mi NNW 9.2 mph - N/A   Overcast
2:55 AM 15.8 °F 3.4 °F 14.0 °F 93% 30.10 in 6.0 mi NNW 10.4 mph - N/A   Overcast
3:15 AM 17.6 °F 6.4 °F 15.8 °F 93% 30.09 in 6.0 mi North 9.2 mph 16.1 mph N/A   Overcast
3:35 AM 17.6 °F 3.7 °F 15.8 °F 93% 30.10 in 6.0 mi NNW 13.8 mph - N/A   Overcast
3:55 AM 17.6 °F 4.3 °F 15.8 °F 93% 30.10 in 8.0 mi North 12.7 mph - N/A   Overcast
4:15 AM 17.6 °F 3.7 °F 15.8 °F 93% 30.10 in 9.0 mi North 13.8 mph - N/A   Overcast
4:35 AM 19.4 °F 7.2 °F 15.8 °F 86% 30.12 in 8.0 mi NNW 11.5 mph - N/A   Overcast
4:55 AM 19.4 °F 7.2 °F 15.8 °F 86% 30.12 in 8.0 mi NNW 11.5 mph - N/A   Overcast
5:15 AM 19.4 °F 7.2 °F 15.8 °F 86% 30.12 in 9.0 mi North 11.5 mph - N/A   Overcast
5:35 AM 19.4 °F 5.0 °F 15.8 °F 86% 30.11 in 10.0 mi North 16.1 mph 21.9 mph N/A   Overcast
5:55 AM 19.4 °F 4.5 °F 15.8 °F 86% 30.12 in 10.0 mi North 17.3 mph - N/A   Overcast
6:15 AM 17.6 °F 2.7 °F 15.8 °F 93% 30.12 in 10.0 mi North 16.1 mph - N/A   Overcast
6:35 AM 17.6 °F 3.7 °F 15.8 °F 93% 30.13 in 10.0 mi North 13.8 mph - N/A   Overcast
6:55 AM 17.6 °F 5.7 °F 15.8 °F 93% 30.13 in 10.0 mi North 10.4 mph 16.1 mph N/A   Overcast
7:15 AM 17.6 °F 5.0 °F 15.8 °F 93% 30.13 in 10.0 mi North 11.5 mph - N/A   Overcast
7:35 AM 17.6 °F 5.7 °F 15.8 °F 93% 30.14 in 10.0 mi North 10.4 mph - N/A   Overcast
7:55 AM 17.6 °F 5.7 °F 15.8 °F 93% 30.14 in 10.0 mi North 10.4 mph - N/A   Overcast
8:15 AM 17.6 °F 4.3 °F 15.8 °F 93% 30.13 in 10.0 mi North 12.7 mph - N/A   Overcast
8:35 AM 19.4 °F 6.6 °F 15.8 °F 86% 30.13 in 10.0 mi North 12.7 mph - N/A   Overcast
8:55 AM 19.4 °F 7.2 °F 15.8 °F 86% 30.14 in 10.0 mi North 11.5 mph - N/A   Mostly Cloudy
9:15 AM 19.4 °F 7.9 °F 14.0 °F 80% 30.14 in 10.0 mi North 10.4 mph - N/A   Partly Cloudy
9:35 AM 19.4 °F 5.5 °F 12.2 °F 74% 30.14 in 10.0 mi North 15.0 mph - N/A   Clear
9:55 AM 17.6 °F 5.7 °F 10.4 °F 73% 30.16 in 10.0 mi North 10.4 mph - N/A   Clear
10:15 AM 17.6 °F 6.4 °F 10.4 °F 73% 30.16 in 10.0 mi North 9.2 mph - N/A   Clear
10:35 AM 17.6 °F 5.0 °F 12.2 °F 79% 30.16 in 10.0 mi North 11.5 mph - N/A   Clear
10:55 AM 19.4 °F 6.0 °F 12.2 °F 74% 30.17 in 10.0 mi North 13.8 mph - N/A   Clear
11:15 AM 17.6 °F 3.7 °F 12.2 °F 79% 30.17 in 10.0 mi North 13.8 mph - N/A   Partly Cloudy
11:35 AM 17.6 °F 4.3 °F 12.2 °F 79% 30.17 in 10.0 mi North 12.7 mph - N/A   Scattered Clouds
11:55 AM 17.6 °F 5.7 °F 12.2 °F 79% 30.17 in 10.0 mi North 10.4 mph - N/A   Scattered Clouds
12:15 PM 17.6 °F 5.0 °F 12.2 °F 79% 30.16 in 10.0 mi NNE 11.5 mph - N/A   Partly Cloudy
12:35 PM 15.8 °F 4.2 °F 10.4 °F 79% 30.16 in 10.0 mi NNE 9.2 mph - N/A   Partly Cloudy
12:55 PM 15.8 °F 3.4 °F 10.4 °F 79% 30.15 in 10.0 mi North 10.4 mph - N/A   Scattered Clouds
1:15 PM 15.8 °F 3.4 °F 8.6 °F 73% 30.15 in 10.0 mi NNE 10.4 mph - N/A   Scattered Clouds
1:35 PM 15.8 °F 3.4 °F 8.6 °F 73% 30.15 in 10.0 mi NNE 10.4 mph - N/A   Scattered Clouds
1:55 PM 15.8 °F 2.7 °F 8.6 °F 73% 30.15 in 10.0 mi North 11.5 mph - N/A   Partly Cloudy
2:15 PM 14.0 °F 1.2 °F 8.6 °F 79% 30.15 in 10.0 mi North 10.4 mph - N/A   Clear
2:35 PM 14.0 °F -0.2 °F 6.8 °F 73% 30.14 in 10.0 mi North 12.7 mph - N/A   Clear
2:55 PM 14.0 °F 0.5 °F 6.8 °F 73% 30.14 in 10.0 mi North 11.5 mph - N/A   Clear
3:15 PM 14.0 °F 1.2 °F 8.6 °F 79% 30.13 in 10.0 mi NNE 10.4 mph - N/A   Clear
3:35 PM 14.0 °F 0.5 °F 6.8 °F 73% 30.13 in 10.0 mi North 11.5 mph - N/A   Clear
3:55 PM 12.2 °F -1.8 °F 6.8 °F 79% 30.13 in 10.0 mi NNE 11.5 mph - N/A   Clear
4:15 PM 12.2 °F -1.8 °F 6.8 °F 79% 30.14 in 10.0 mi North 11.5 mph - N/A   Clear
4:35 PM 12.2 °F -1.8 °F 6.8 °F 79% 30.15 in 10.0 mi North 11.5 mph - N/A   Clear
4:55 PM 10.4 °F -4.8 °F 5.0 °F 79% 30.15 in 10.0 mi North 12.7 mph - N/A   Clear
5:15 PM 10.4 °F -4.8 °F 5.0 °F 79% 30.15 in 10.0 mi North 12.7 mph - N/A   Clear
5:35 PM 10.4 °F -5.4 °F 3.2 °F 73% 30.16 in 10.0 mi North 13.8 mph - N/A   Partly Cloudy
6:15 PM 8.6 °F -3.7 °F 3.2 °F 79% 30.17 in 10.0 mi North 8.1 mph - N/A   Clear
6:35 PM 8.6 °F -5.5 °F 1.4 °F 73% 30.17 in 10.0 mi NNE 10.4 mph 16.1 mph N/A   Clear
6:55 PM 8.6 °F -4.7 °F 1.4 °F 73% 30.17 in 10.0 mi North 9.2 mph - N/A   Clear
7:15 PM 6.8 °F -6.9 °F 1.4 °F 79% 30.18 in 10.0 mi NNE 9.2 mph - N/A   Clear
7:35 PM 6.8 °F -4.8 °F 1.4 °F 79% 30.19 in 10.0 mi North 6.9 mph - N/A   Clear
8:15 PM 5.0 °F -8.1 °F -0.4 °F 78% 30.19 in 10.0 mi North 8.1 mph - N/A   Clear
8:35 PM 3.2 °F -10.3 °F -2.2 °F 78% 30.19 in 10.0 mi North 8.1 mph - N/A   Clear
8:55 PM 5.0 °F -9.1 °F -0.4 °F 78% 30.20 in 10.0 mi North 9.2 mph - N/A   Clear
9:15 PM 3.2 °F -10.3 °F -2.2 °F 78% 30.19 in 10.0 mi North 8.1 mph - N/A   Clear
9:35 PM 3.2 °F -10.3 °F -2.2 °F 78% 30.19 in 10.0 mi North 8.1 mph - N/A   Clear
9:55 PM 3.2 °F -10.3 °F -4.0 °F 72% 30.20 in 10.0 mi North 8.1 mph - N/A   Clear
10:15 PM 3.2 °F -9.1 °F -4.0 °F 72% 30.20 in 10.0 mi North 6.9 mph - N/A   Clear
10:35 PM 1.4 °F -12.5 °F -4.0 °F 78% 30.20 in 10.0 mi North 8.1 mph - N/A   Clear
10:55 PM 1.4 °F -12.5 °F -5.8 °F 72% 30.21 in 10.0 mi North 8.1 mph - N/A   Clear
11:15 PM -0.4 °F -14.7 °F -5.8 °F 78% 30.21 in - North 8.1 mph - N/A   Clear
11:35 PM -0.4 °F -13.4 °F -5.8 °F 78% 30.22 in 10.0 mi North 6.9 mph - N/A   Clear
11:55 PM -0.4 °F -16.7 °F -7.6 °F 72% 30.22 in 10.0 mi North 10.4 mph - N/A   Clear